Showing default

GEESAT 2-03, 58907

Orbit data source: Space-Track

GEESAT 2-03, 58907 is a payload satellite owned by GeeSpace (CN) in LEO that was launched on Fri, 02 Feb 2024 UTC via a CHANG ZHENG 2C launch vehicle from the Xichang Space Center, China (XSC). Payload-class satellites include a variety of spacecraft equipped with specific instruments for various scientific and technological missions. These include communications satellites like Starlink; space stations such as the ISS; scientific satellites like the Hubble; Earth observation satellites from companies like Planet Labs, Umbra, and HawkEye 360; GPS; miniature CubeSats for education and research; and military/defense satellites.

Loading next visibility...
Identifier
58907, 2024-023C
Orbit
LEO
Country
Flag of CNCN / PRC
Related business
Manufacturer
GWCG
Mission
Operational Commercial Navigation
Bus & Motor
GPS100, Unknown motor
Mass
130 kg wet, 130 kg dry
Launch date (UTC)
2024-02-02 (2 years ago)
Launch vehicle
CHANG ZHENG 2C
Launch site
Xichang Space Center, China (XSC)
Object type
Payload
Rocket body
Debris
Shape & HBR
Box + 2 Pan, 1.0 m
Radar Cross Section
0.833 m², Medium (>0.1 m² and < 1m²)

Expand to show TLE details & history
Last TLE update: 8 hours ago

TLE from 8 hours ago
0 GEESAT 2-03
1 58907U 24023C   25304.27175150  .00003863  00000-0  36585-3 0  9992
2 58907  50.0015 326.5121 0006313 221.9247 138.1213 14.95636114 95049
Epoch: 2025-10-31T06:31Z
TLE epoch observation values (Epoch: 2025-10-31T06:31:19.329Z)
Latitude
-0.00007°
Longitude
-171.13707°
Altitude
584.218 km
Speed
7.568 km/s
True Right ascension
21h 46m 02s
True Declination
0° 00' 00"
Sunlit
Object was in daylight at epoch
Visualization orbit readout
Latitude
Unknown
Longitude
Unknown
Altitude
Unknown
Speed
Unknown
Apparent Right ascension
Unknown
Apparent Declination
Unknown
Sunlit
N/A
Visualization observer readout
Local Sidereal Time
09:45:39
Azimuth
Unknown
Elevation
Unknown
Doppler factor
Unknown
Orbital elements
Apogee altitude
585.555 km
Perigee altitude
576.768 km
Semi-major axis
6,959.298 km
Eccentricity
0.00063
Inclination
50.0015°
RAAN
326.5121°
Arg. of periapsis
221.9247°
True anomaly
138.16956°
Mean anomaly
138.1213°
Eccentric anomaly
138.14543°
Mean motion
3.73848 °/min
Orbital period
96.3 mins
BSTAR
0.00036585
Loading maneuver chart data...
Computing Atmospheric mass density...
Loading historical data...
Loading historical data...
Loading historical data...
Loading historical data...
Loading historical data...
Loading historical data...
Loading historical data...

Documentation

Showing up to 5 results
|